Previsão horária em Pliskow

Hoje, 1 Março, Segunda-feira

Tempo Temperatura Precipitação Vento Pressão Humidade
00:00 0°C° 0.2 mm 5 m/s 751 mmHg 95%
01:00 +1°C° 0.2 mm 5 m/s 751 mmHg 95%
02:00 +1°C° 0 mm 4 m/s 752 mmHg 96%
03:00 +1°C° 0 mm 4 m/s 752 mmHg 95%
04:00 +1°C° 0 mm 4 m/s 752 mmHg 95%
05:00 0°C° 0 mm 4 m/s 753 mmHg 94%
06:00 +1°C° 0 mm 3 m/s 753 mmHg 94%
07:00 +1°C° 0 mm 3 m/s 754 mmHg 95%
08:00 +1°C° 0 mm 3 m/s 754 mmHg 95%
09:00 +1°C° 0 mm 3 m/s 754 mmHg 92%
10:00 +2°C° 0 mm 3 m/s 755 mmHg 89%
11:00 +3°C° 0 mm 3 m/s 755 mmHg 85%
12:00 +3°C° 0 mm 3 m/s 755 mmHg 81%
13:00 +4°C° 0 mm 3 m/s 755 mmHg 77%
14:00 +4°C° 0 mm 3 m/s 756 mmHg 73%
15:00 +4°C° 0 mm 3 m/s 756 mmHg 73%
16:00 +5°C° 0 mm 3 m/s 755 mmHg 72%
17:00 +5°C° 0 mm 3 m/s 755 mmHg 72%
18:00 +4°C° 0 mm 3 m/s 755 mmHg 78%
19:00 +3°C° 0 mm 3 m/s 755 mmHg 83%
20:00 +2°C° 0 mm 3 m/s 755 mmHg 89%
21:00 +1°C° 0 mm 3 m/s 755 mmHg 91%
22:00 +1°C° 0 mm 3 m/s 755 mmHg 92%
23:00 0°C° 0 mm 3 m/s 755 mmHg 93%

Amanhã, 2 Março, Terça-feira

Tempo Temperatura Precipitação Vento Pressão Humidade
00:00 0°C° 0 mm 3 m/s 755 mmHg 93%
01:00 -1°C° 0 mm 4 m/s 755 mmHg 93%
02:00 -1°C° 0 mm 4 m/s 755 mmHg 93%
03:00 -1°C° 0 mm 4 m/s 755 mmHg 92%
04:00 -1°C° 0 mm 4 m/s 754 mmHg 92%
05:00 -1°C° 0 mm 5 m/s 754 mmHg 92%
06:00 -1°C° 0 mm 5 m/s 754 mmHg 91%
07:00 -1°C° 0 mm 5 m/s 753 mmHg 90%
08:00 -1°C° 0 mm 5 m/s 753 mmHg 89%
09:00 +1°C° 0 mm 6 m/s 753 mmHg 83%
10:00 +3°C° 0 mm 6 m/s 753 mmHg 76%
11:00 +4°C° 0 mm 7 m/s 753 mmHg 70%
12:00 +5°C° 0 mm 7 m/s 752 mmHg 66%
13:00 +6°C° 0 mm 7 m/s 752 mmHg 61%
14:00 +8°C° 0 mm 7 m/s 752 mmHg 57%
15:00 +8°C° 0 mm 7 m/s 752 mmHg 58%
16:00 +8°C° 0 mm 6 m/s 752 mmHg 59%
17:00 +8°C° 0 mm 6 m/s 751 mmHg 59%
18:00 +7°C° 0 mm 5 m/s 751 mmHg 65%
19:00 +5°C° 0 mm 5 m/s 752 mmHg 71%
20:00 +4°C° 0 mm 4 m/s 752 mmHg 77%
21:00 +4°C° 0 mm 4 m/s 752 mmHg 81%
22:00 +3°C° 0 mm 4 m/s 753 mmHg 84%
23:00 +2°C° 0 mm 3 m/s 753 mmHg 88%

Depois de amanhã, 3 Março, Quarta-feira

Tempo Temperatura Precipitação Vento Pressão Humidade
00:00 +2°C° 0 mm 3 m/s 753 mmHg 90%
01:00 +1°C° 0 mm 3 m/s 753 mmHg 92%
02:00 +2°C° 0 mm 2 m/s 753 mmHg 94%
03:00 +1°C° 0 mm 2 m/s 753 mmHg 94%
04:00 +1°C° 0 mm 2 m/s 753 mmHg 95%
05:00 +1°C° 0 mm 1 m/s 753 mmHg 96%
06:00 +2°C° 0 mm 1 m/s 753 mmHg 96%
07:00 +2°C° 0 mm 1 m/s 753 mmHg 96%
08:00 +1°C° 0 mm 0 m/s 753 mmHg 96%
09:00 +2°C° 0 mm 0 m/s 753 mmHg 89%
10:00 +3°C° 0 mm 0 m/s 753 mmHg 83%
11:00 +4°C° 0 mm 0 m/s 753 mmHg 77%
12:00 +6°C° 0 mm 1 m/s 753 mmHg 70%
13:00 +7°C° 0 mm 1 m/s 753 mmHg 64%
14:00 +8°C° 0 mm 1 m/s 752 mmHg 57%
15:00 +8°C° 0 mm 1 m/s 752 mmHg 57%
16:00 +9°C° 0 mm 1 m/s 751 mmHg 58%
17:00 +9°C° 0 mm 1 m/s 750 mmHg 58%
18:00 +8°C° 0 mm 1 m/s 750 mmHg 64%
19:00 +5°C° 0 mm 2 m/s 750 mmHg 70%
20:00 +4°C° 0 mm 2 m/s 749 mmHg 76%
21:00 +4°C° 0 mm 2 m/s 749 mmHg 80%
22:00 +4°C° 0 mm 2 m/s 748 mmHg 83%
23:00 +2°C° 0 mm 3 m/s 748 mmHg 87%

4 Março, Quinta-feira

Tempo Temperatura Precipitação Vento Pressão Humidade
00:00 +2°C° 0 mm 3 m/s 747 mmHg 88%
01:00 +2°C° 0 mm 3 m/s 746 mmHg 88%
02:00 +1°C° 0 mm 3 m/s 746 mmHg 89%
03:00 0°C° 0 mm 4 m/s 745 mmHg 88%
04:00 0°C° 0 mm 4 m/s 744 mmHg 88%
05:00 0°C° 0 mm 5 m/s 744 mmHg 87%
06:00 0°C° 0 mm 5 m/s 743 mmHg 87%
07:00 0°C° 0 mm 5 m/s 743 mmHg 86%
08:00 -1°C° 0 mm 6 m/s 742 mmHg 86%
09:00 +2°C° 0 mm 6 m/s 742 mmHg 80%
10:00 +3°C° 0 mm 6 m/s 742 mmHg 75%
11:00 +5°C° 0 mm 6 m/s 741 mmHg 69%
12:00 +7°C° 0 mm 6 m/s 741 mmHg 67%
13:00 +8°C° 0 mm 6 m/s 741 mmHg 64%
14:00 +9°C° 0 mm 6 m/s 740 mmHg 61%
15:00 +8°C° 0 mm 5 m/s 740 mmHg 64%
16:00 +8°C° 0 mm 4 m/s 739 mmHg 68%
17:00 +8°C° 0 mm 4 m/s 739 mmHg 71%
18:00 +8°C° 0 mm 3 m/s 739 mmHg 75%
19:00 +7°C° 0 mm 3 m/s 739 mmHg 80%
20:00 +7°C° 0 mm 2 m/s 739 mmHg 84%
21:00 +6°C° 0.4 mm 2 m/s 739 mmHg 86%
22:00 +6°C° 0.4 mm 2 m/s 738 mmHg 88%
23:00 +5°C° 0.4 mm 2 m/s 738 mmHg 90%

5 Março, Sexta-feira

Tempo Temperatura Precipitação Vento Pressão Humidade
00:00 +5°C° 0.4 mm 2 m/s 738 mmHg 91%
01:00 +6°C° 0.4 mm 1 m/s 737 mmHg 93%
02:00 +5°C° 0.4 mm 1 m/s 737 mmHg 94%
03:00 +5°C° 1.2 mm 1 m/s 736 mmHg 95%
04:00 +5°C° 1.2 mm 1 m/s 736 mmHg 97%
05:00 +5°C° 1.2 mm 1 m/s 736 mmHg 98%
06:00 +4°C° 0.8 mm 2 m/s 736 mmHg 97%
07:00 +2°C° 0.8 mm 3 m/s 736 mmHg 97%
08:00 +1°C° 0.8 mm 4 m/s 736 mmHg 97%
09:00 0°C° 0.6 mm 4 m/s 736 mmHg 96%
10:00 0°C° 0.6 mm 4 m/s 736 mmHg 96%
11:00 -1°C° 0.6 mm 4 m/s 736 mmHg 95%
12:00 -1°C° 0.2 mm 4 m/s 737 mmHg 93%
13:00 -1°C° 0.2 mm 4 m/s 738 mmHg 90%
14:00 -1°C° 0.2 mm 4 m/s 738 mmHg 88%
15:00 -1°C° 0.2 mm 4 m/s 739 mmHg 82%
16:00 -1°C° 0.2 mm 5 m/s 739 mmHg 77%
17:00 -2°C° 0.2 mm 5 m/s 740 mmHg 71%
18:00 -2°C° 0 mm 4 m/s 741 mmHg 69%
19:00 -1°C° 0 mm 3 m/s 742 mmHg 66%
20:00 -1°C° 0 mm 2 m/s 742 mmHg 64%
21:00 -2°C° 0 mm 2 m/s 743 mmHg 66%
22:00 -2°C° 0 mm 2 m/s 744 mmHg 68%
23:00 -2°C° 0 mm 2 m/s 745 mmHg 69%

6 Março, Sábado

Tempo Temperatura Precipitação Vento Pressão Humidade
00:00 -3°C° 0 mm 2 m/s 745 mmHg 71%
01:00 -3°C° 0 mm 2 m/s 745 mmHg 73%
02:00 -3°C° 0 mm 2 m/s 746 mmHg 75%
03:00 -3°C° 0 mm 2 m/s 746 mmHg 73%
04:00 -3°C° 0 mm 2 m/s 746 mmHg 72%
05:00 -4°C° 0 mm 2 m/s 747 mmHg 70%
06:00 -3°C° 0 mm 2 m/s 747 mmHg 65%
07:00 -4°C° 0 mm 3 m/s 748 mmHg 60%
08:00 -4°C° 0 mm 3 m/s 748 mmHg 55%
09:00 -4°C° 0 mm 4 m/s 749 mmHg 55%
10:00 -3°C° 0 mm 4 m/s 749 mmHg 54%
11:00 -4°C° 0 mm 5 m/s 749 mmHg 53%
12:00 -2°C° 0 mm 5 m/s 750 mmHg 48%
13:00 -2°C° 0 mm 5 m/s 750 mmHg 43%
14:00 -1°C° 0 mm 5 m/s 750 mmHg 38%
15:00 -1°C° 0.1 mm 5 m/s 750 mmHg 42%
16:00 -2°C° 0.1 mm 5 m/s 750 mmHg 45%
17:00 -2°C° 0.1 mm 5 m/s 751 mmHg 49%
18:00 -3°C° 0 mm 4 m/s 751 mmHg 52%
19:00 -2°C° 0 mm 3 m/s 752 mmHg 55%
20:00 -3°C° 0 mm 2 m/s 752 mmHg 57%
21:00 -3°C° 0 mm 2 m/s 753 mmHg 57%
22:00 -4°C° 0 mm 2 m/s 753 mmHg 56%
23:00 -4°C° 0 mm 2 m/s 753 mmHg 55%
Mostrar mais

Necessitamos do seu Consentimento

A Meteoprog e os seus Fornecedores de Serviços podem armazenar e aceder a dados pessoais como cookies, identificadores do dispositivo ou outras tecnologias semelhantes existentes no seu dispositivo e processar estes dados para personalizar conteúdos e anúncios, assim como funcionalidades nas redes sociais e análise de tráfego.

  • Armazenar e/ou aceder a informações no seu dispositivo

    Os cookies, identificadores do dispositivo ou outras informações podem ser armazenados ou acedidos no seu dispositivo, para os fins acima indicados.

  • Anúncios e conteúdos personalizados, medição de anúncios e conteúdos, dados sobre o público-alvo e desenvolvimento de produtos

    Os anúncios e os conteúdos podem ser personalizados com base num perfil. Podem ser adicionados dados adicionais para uma maior personalização dos anúncios e dos conteúdos. A eficácia dos anúncios e dos conteúdos pode ser medida. Podem ser obtidas informações sobre o público que visualizou os anúncios e os conteúdos. Estes dados podem ser usados para desenvolver ou melhorar sistemas, softwares ou a experiência do utilizador.

Ao clicar em "Eu concordo”, permitirá o uso de cookies, identificadores do dispositivo e web beacons mencionados ou outras tecnologias semelhantes. As configurações do navegador do seu dispositivo podem ser alteradas.

Para certos fins, podem ser invocados interesses legítimos ao invés de consentimento. Pode ler mais informação sobre este assunto na nossa Política de Privacidade e Cookies.